Weather History for Fort Myers, FL

Change the Weather History Date:

Thursday, December 6, 2012

  Actual Average Record
Temperature  
Mean Temperature 72 °F 68 °F  
Max Temperature 82 °F 78 °F 87 °F (1978)
Min Temperature 62 °F 58 °F 41 °F (1987)
Degree Days  
Heating Degree Days 0 2  
Month to date heating degree days 0 7  
Since 1 July heating degree days 15 25  
Cooling Degree Days 7 5  
Month to date cooling degree days 36 30  
Year to date cooling degree days 4249 3893  
Growing Degree Days 21 (Base 50)    
Moisture  
Dew Point 62 °F    
Average Humidity 77    
Maximum Humidity 93    
Minimum Humidity 54    
Precipitation  
Precipitation 0.02 in 0.04 in 1.45 in (1979)
Month to date precipitation 0.02 0.27  
Year to date precipitation 47.45 54.49  
Sea Level Pressure  
Sea Level Pressure 29.98 in    
Wind  
Wind Speed 5 mph (ENE)    
Max Wind Speed 12 mph    
Max Gust Speed 15 mph    
Visibility 10 miles    
Events      
T = Trace of Precipitation, MM = Missing Value Source: NWS Daily Summary

Daily Weather History Graph

Daily Weather History Graph

Search for Another Location

Airport:

Trip Planner

Search our weather history database for the weather conditions in past years. The results will help you decide how hot, cold, wet, or windy it might be!

Date:

Astronomy

Dec. 06, 2012 Rise Set
Actual Time 7:02 AM EST 5:34 PM EST
Civil Twilight 6:37 AM EST 6:00 PM EST
Nautical Twilight 6:08 AM EST 6:28 PM EST
Astronomical Twilight 5:40 AM EST 6:57 PM EST
Moon No Moon Rise 12:26 PM EST (12/6)
Length of Visible Light 11h 22m
Length of Day
10h 32m
Waning Gibbous, 49% of the Moon is Illuminated
Dec 6
Waning Gibbous
Dec 13
New
Dec 20
First Quarter
Dec 28
Full
Jan 4
Last Quarter

Hourly Weather History & Observations

Time (EST) Temp. Heat Index Dew Point Humidity Pressure Visibility Wind Dir Wind Speed Gust Speed Precip Events Conditions
12:53 AM 66.0 °F - 62.1 °F 87% 30.04 in 10.0 mi NNE 3.5 mph - N/A   Overcast
1:53 AM 64.0 °F - 61.0 °F 90% 30.01 in 10.0 mi East 3.5 mph - N/A   Clear
2:53 AM 63.0 °F - 61.0 °F 93% 30.00 in 10.0 mi NE 3.5 mph - N/A   Clear
3:53 AM 63.0 °F - 61.0 °F 93% 29.99 in 10.0 mi ENE 3.5 mph - N/A   Clear
4:53 AM 62.1 °F - 60.1 °F 93% 29.98 in 10.0 mi NE 6.9 mph - N/A   Clear
5:53 AM 62.1 °F - 60.1 °F 93% 29.99 in 10.0 mi NE 5.8 mph - N/A   Clear
6:53 AM 62.1 °F - 60.1 °F 93% 30.01 in 10.0 mi ENE 5.8 mph - N/A   Scattered Clouds
7:53 AM 63.0 °F - 60.1 °F 90% 30.02 in 10.0 mi East 5.8 mph - N/A   Clear
8:53 AM 69.1 °F - 62.1 °F 78% 30.02 in 10.0 mi East 4.6 mph - N/A   Clear
9:53 AM 75.9 °F - 64.0 °F 67% 30.02 in 10.0 mi East 8.1 mph - N/A   Clear
10:53 AM 78.1 °F - 63.0 °F 60% 30.01 in 10.0 mi East 9.2 mph - N/A   Clear
11:53 AM 78.1 °F - 63.0 °F 60% 29.99 in 10.0 mi ENE 8.1 mph - N/A   Mostly Cloudy
12:53 PM 78.1 °F - 63.0 °F 60% 29.96 in 10.0 mi ENE 6.9 mph - N/A   Mostly Cloudy
1:53 PM 80.1 °F 81.2 °F 62.1 °F 54% 29.93 in 10.0 mi NE 9.2 mph - N/A   Mostly Cloudy
2:53 PM 78.1 °F - 62.1 °F 58% 29.92 in 10.0 mi East 6.9 mph - N/A   Partly Cloudy
3:53 PM 80.1 °F 81.2 °F 62.1 °F 54% 29.92 in 10.0 mi East 5.8 mph - N/A   Clear
4:53 PM 77.0 °F - 61.0 °F 58% 29.92 in 10.0 mi Calm Calm - N/A   Clear
5:53 PM 75.0 °F - 62.1 °F 64% 29.94 in 10.0 mi ENE 3.5 mph - N/A   Mostly Cloudy
6:53 PM 73.9 °F - 64.0 °F 71% 29.95 in 10.0 mi NE 5.8 mph - 0.00 in   Overcast
7:53 PM 73.0 °F - 64.0 °F 73% 29.96 in 10.0 mi SE 3.5 mph - N/A   Overcast
8:53 PM 70.0 °F - 66.9 °F 90% 29.97 in 10.0 mi Calm Calm - 0.02 in   Mostly Cloudy
9:53 PM 69.1 °F - 64.9 °F 87% 29.98 in 10.0 mi East 5.8 mph - N/A   Partly Cloudy
10:53 PM 66.9 °F - 64.0 °F 90% 29.96 in 10.0 mi ESE 3.5 mph - N/A   Clear
11:53 PM 66.0 °F - 64.0 °F 93% 29.95 in 10.0 mi Calm Calm - N/A   Clear